Regional Weather Roundup
Issued by NWS Northern Indiana

Home | Current Version | Previous Version | Graphics & Text | Print | Product List | Glossary On
Versions: 1 2 3 4 5 6 7 8 9 10 11 12 13 14 15 16 17 18 19 20 21 22 23 24 25 26 27 28 29 30 31 32 33 34 35 36 37 38 39 40 41 42 43 44 45 46 47 48 49 50
000
ASUS43 KIWX 311010
RWRIWX

KIWX WEATHER ROUNDUP
NATIONAL WEATHER SERVICE NORTHERN INDIANA
600 AM EDT THU JUL 31 2014

NOTE: "FAIR" INDICATES FEW OR NO CLOUDS BELOW 12,000 FEET WITH NO
SIGNIFICANT WEATHER AND/OR OBSTRUCTIONS TO VISIBILITY.

* THESE STATIONS ARE NOT UNDER NWS QUALITY CONTROL. THEY ALSO MAY NOT
  REPORT WEATHER SUCH AS PRECIPITATION OR FOG.

INZ001>027-311100-
NORTHERN INDIANA

CITY           SKY/WX    TMP DP  RH WIND       PRES   REMARKS
GARY*          CLEAR     61  59  94 SW7       30.04R FOG
VALPARAISO     CLEAR     55  54  96 CALM      30.05R FOG
MICHIGAN CITY*   N/A     52  52 100 CALM      30.03S FOG
LAPORTE*         N/A     50  50 100 CALM      30.04S FOG
KNOX*            N/A     49  48  95 CALM      30.03S VSB<1/4
SOUTH BEND     CLEAR     58  55  90 CALM      30.03S FOG
GOSHEN         CLEAR     55  52  89 S3        30.04R FOG
MONTICELLO*    CLEAR     53  53  99 CALM      30.04S FOG
LOGANSPORT*    FOG       52  50  93 CALM      30.06R VSB 1/2
ROCHESTER*     FOG       55  55 100 CALM      30.05S VSB 3/4
WARSAW*        CLEAR     54  52  94 CALM      30.04S FOG
ANGOLA*        CLOUDY    50  50 100 CALM      30.04R VSB 1/4
FORT WAYNE     PTCLDY    56  54  93 CALM      30.05R
HUNTINGTON*    CLEAR     55  55  99 CALM      30.05R FOG
PERU/GRISSOM   CLEAR     57  57 100 CALM      30.05R
MARION*        PTCLDY    53  52  97 CALM      30.06S FOG

$$
INZ028>050-311100-
CENTRAL INDIANA

CITY           SKY/WX    TMP DP  RH WIND       PRES   REMARKS
LAFAYETTE      FOG       57  57 100 CALM      30.05R VSB 1/4
KOKOMO*        CLEAR     54  54 100 CALM      30.06R
MUNCIE*        CLEAR     61  58  90 SW5       30.06S FOG
INDIANAPOLIS   PTCLDY    60  58  92 W3        30.06R

$$
MIZ043>046-050>051-056>058-064>065-071>073-077>080-311100-
SOUTHWEST LOWER MICHIGAN

CITY           SKY/WX    TMP DP  RH WIND       PRES   REMARKS
BATTLE CREEK   CLEAR     56  50  80 SW5       30.02S
BENTON HARBOR  CLEAR     52  51  97 CALM      30.01S
COLDWATER*     CLEAR     53  52  96 CALM      30.03R
HILLSDALE*     CLEAR     49  49 100 CALM      30.03S
HOLLAND        PTCLDY    59  56  89 CALM      30.01S
GRAND RAPIDS   PTCLDY    55  51  86 SW3       30.01S
KALAMAZOO      CLEAR     54  50  86 SW5       30.03R
STURGIS*       CLEAR     54  54 100 CALM      30.03S FOG
THREE RIVERS*  FAIR      54  54 100 S3        30.03S FOG

$$
OHZ001>008-015>018-024>025-311100-
NORTHWEST OHIO

CITY           SKY/WX    TMP DP  RH WIND       PRES   REMARKS
WAUSEON*       FAIR      46  46 100 CALM      30.03R FOG
DEFIANCE       CLEAR     53  50  89 CALM      30.04R FOG
FINDLAY        CLEAR     57  54  89 SW5       30.03S
TOLEDO EXPRESS CLEAR     50  50 100 CALM      30.03R FOG
TOLEDO METCALF CLEAR     55  51  86 SW5       30.04R
LIMA           CLEAR     61  59  93 S5        30.05R FOG

$$
&&


USA.gov is the U.S. government's official web portal to all federal, state and local government web resources and services.